Regional Weather Roundup
Issued by NWS

Home | Current Version | Previous Version | Text Only | Print | Product List | Glossary Off
Versions: 1 2 3 4 5 6 7 8 9 10 11 12 13 14 15 16 17 18 19 20 21 22 23 24 25 26 27

000
ASUS45 KSLC 230210
RWRUT

UTAH REGIONAL WEATHER ROUNDUP
NATIONAL WEATHER SERVICE SALT LAKE CITY UT
700 PM MST WED FEB 22 2017

UTZ001>011-023>025-230300-

NORTHERN UTAH

CITY           SKY/WX    TMP DP  RH WIND       PRES   REMARKS
BRIGHAM CITY     N/A     33  32  94 NW6       29.81R WCI  28
HILL AFB       LGT SNOW  30  28  93 W18G29    29.81R VSB 3/4 WCI  18
LOGAN          LGT SNOW  34  32  92 NW7       29.79S FOG     WCI  28
OGDEN          LGT SNOW  30  30 100 W13G26    29.81R VSB 1   WCI  20
SALT LAKE CITY CLOUDY    33  30  88 NE9       29.84R WCI  25
TOOELE VALLEY  CLOUDY    34  32  93 CALM      29.84R
WENDOVER       PTCLDY    36  14  41 NW24      29.83R WCI  24
HEBER CITY     FLURRIES  30  28  93 CALM      29.76R
WEST JORDAN    CLOUDY    35  35 100 E8        29.84R WCI  29

$$

UTZ011>015-024>027-230300-

CENTRAL/NORTHEAST UTAH

CITY           SKY/WX    TMP DP  RH WIND       PRES   REMARKS
PROVO AIRPORT  LGT SNOW  32  30  93 W8        29.83S VSB 3/4 WCI  25
MOAB/CANYONLAN PTCLDY    56  16  20 SW15      29.58F
DELTA          CLOUDY    32  25  74 N21G29    29.83R WCI  20
PRICE          CLOUDY    41  32  70 N7        29.61F
RICHFIELD      CLOUDY    39  30  70 N5G13     29.75F
ROOSEVELT      MIX PCPN  36  32  87 E7        29.71F WCI  30
VERNAL         LGT SNOW  32  30  92 N9        29.73R VSB 1   WCI  24

$$

UTZ013>016-019>022-027-230300-

SOUTHERN UTAH

CITY           SKY/WX    TMP DP  RH WIND       PRES   REMARKS
BRYCE CANYON   PTCLDY    35  19  52 SW16G24   29.73F WCI  25
CEDAR CITY     FLURRIES  34  27  75 W20G26    29.78R WCI  23
MILFORD        SNOW      31  30  96 NE14      29.82R VSB 1/2 WCI  21
ST GEORGE      CLOUDY    56  24  29 W12       29.74S
HANKSVILLE     PTCLDY    55  18  22 SW18G25   29.62F
KANAB          MOCLDY    50  32  50 SW15G22   29.77S
BLANDING       PTCLDY    51  19  28 SW20G28   29.78F

$$

REGIONAL REPORTS     COLORADO/ARIZONA

CITY           SKY/WX    TMP DP  RH WIND       PRES   REMARKS
CRAIG, CO      CLOUDY    34  26  72 CALM      29.73F
GRAND JUNCTION PTCLDY    51  28  41 E6        29.61F
RIFLE, CO      CLOUDY    50  28  42 E7        29.64F
MONTROSE, CO   CLOUDY    53  22  29 S7        29.71F
CORTEZ, CO     CLOUDY    50  27  40 SW9       29.77F
COLORADO CITY  MOCLDY    50  28  43 W15G24    29.78F
PAGE, AZ       CLEAR     59   5  11 SW17G24   29.65F
GRAND CANYON   CLEAR     42  27  55 SW18G29   29.83F
KINGMAN, AZ    MOCLDY    55  29  36 SW18      29.82F
FLAGSTAFF, AZ  CLOUDY    41  31  67 SW15      29.89F

$$

REGIONAL REPORTS    NEVADA/IDAHO/WYOMING

CITY           SKY/WX    TMP DP  RH WIND       PRES   REMARKS
LAS VEGAS, NV  PTCLDY    59  22  24 NW12      29.78S
ELY, NY        MOCLDY    19   8  62 CALM      29.86F
ELKO, NV       CLOUDY    30  21  69 W16G22    29.87R WCI  19
POCATELLO, ID  CLOUDY    33  26  75 E3        29.79F
BURLEY, ID     LGT SNOW  33  30  88 S5        29.79S FOG     WCI  29
FORT BRIDGER,  LGT SNOW  26  26 100 E7        29.77S WCI  19
EVANSTON, WY   LGT SNOW  25  22  88 CALM      29.73F VSB 1
ROCK SPRINGS,  CLOUDY    28  22  78 S6        29.74F WCI  22

$$




USA.gov is the U.S. government's official web portal to all federal, state and local government web resources and services.